Minot, ND

3:01 AM CST on February 23, 2018 (GMT -0600)
Minot International

Weather History for KMOT - November, 2014

Change the Weather History Date:

Wednesday, November 12, 2014

  Actual Average Record
Temperature  
Mean Temperature 15 °F 30 °F  
Max Temperature 22 °F 39 °F 72 °F (1999)
Min Temperature 8 °F 22 °F -18 °F (1940)
Degree Days  
Heating Degree Days 50 35  
Month to date heating degree days 402 379  
Since 1 July heating degree days 1241 1339  
Moisture  
Dew Point 7 °F    
Average Humidity 75    
Maximum Humidity 83    
Minimum Humidity 67    
Precipitation  
Precipitation T in 0.03 in 0.69 in (2005)
Month to date precipitation 0.08 0.35  
Year to date precipitation 15.85 16.41  
Sea Level Pressure  
Sea Level Pressure 30.62 in    
Wind  
Wind Speed 18 mph (WNW)    
Max Wind Speed 25 mph    
Max Gust Speed 31 mph    
Visibility 7 miles    
Events Snow    
T = Trace of Precipitation, MM = Missing Value Source: NWS Daily Summary

Daily Weather History Graph

Daily Weather History Graph

Search for Another Location

Airport or City:

Trip Planner

Search our weather history database for the weather conditions in past years. The results will help you decide how hot, cold, wet, or windy it might be!

Date:

Astronomy

Nov. 12, 2014 Rise Set
Actual Time 7:47 AM CST 5:10 PM CST
Civil Twilight 7:13 AM CST 5:43 PM CST
Nautical Twilight 6:36 AM CST 6:21 PM CST
Astronomical Twilight 5:59 AM CST 6:58 PM CST
Moon 10:35 PM CST (11/12) 12:32 PM CST (11/12)
Length of Visible Light 10h 29m
Length of Day
9h 22m
Waning Gibbous, 68% of the Moon is Illuminated
Nov 12
Waning Gibbous
Nov 14
Last Quarter
Nov 22
New
Nov 29
First Quarter
Dec 6
Full

Hourly Weather History & Observations

Time (CST) Temp. Windchill Dew Point Humidity Pressure Visibility Wind Dir Wind Speed Gust Speed Precip Events Conditions
12:54 AM 12.9 °F -4.9 °F 7.0 °F 77% 30.58 in 10.0 mi NW 19.6 mph - N/A   Overcast
1:54 AM 12.9 °F -2.2 °F 7.0 °F 77% 30.60 in 10.0 mi WNW 13.8 mph - N/A   Overcast
2:54 AM 12.9 °F -4.4 °F 7.0 °F 77% 30.60 in 10.0 mi NW 18.4 mph - N/A   Overcast
3:54 AM 12.9 °F -2.8 °F 7.0 °F 77% 30.61 in 9.0 mi NW 15.0 mph 24.2 mph 0.00 in   Overcast
4:54 AM 12.0 °F -4.5 °F 6.1 °F 77% 30.62 in 6.0 mi WNW 16.1 mph - 0.00 in Snow Light Snow
5:01 AM 12.0 °F -5.6 °F 7.0 °F 80% 30.51 in 2.5 mi WNW 18.4 mph - 0.00 in Snow Light Snow
5:35 AM 12.0 °F -4.0 °F 7.0 °F 80% 30.51 in 3.0 mi WNW 15.0 mph 24.2 mph 0.00 in Snow Light Snow
5:54 AM 10.9 °F -7.0 °F 6.1 °F 81% 30.63 in 2.0 mi WNW 18.4 mph - 0.00 in Snow Light Snow
6:20 AM 10.9 °F -7.9 °F 6.1 °F 81% 30.51 in 1.5 mi WNW 20.7 mph - 0.00 in Snow Light Snow
6:25 AM 10.9 °F -7.5 °F 6.1 °F 81% 30.51 in 3.0 mi WNW 19.6 mph - 0.00 in Snow Light Snow
6:42 AM 10.0 °F -9.1 °F 5.0 °F 80% 30.51 in 7.0 mi WNW 20.7 mph 27.6 mph 0.00 in Snow Light Snow
6:54 AM 10.0 °F -9.1 °F 3.9 °F 76% 30.63 in 9.0 mi WNW 20.7 mph - 0.00 in   Overcast
7:54 AM 8.1 °F -11.2 °F 3.0 °F 80% 30.65 in 10.0 mi WNW 19.6 mph 25.3 mph N/A   Mostly Cloudy
8:54 AM 9.0 °F -10.5 °F 3.9 °F 80% 30.66 in 10.0 mi WNW 20.7 mph - N/A   Partly Cloudy
9:30 AM 10.9 °F -8.3 °F 5.0 °F 77% 30.54 in 5.0 mi WNW 21.9 mph 28.8 mph 0.00 in Snow Light Snow
9:45 AM 12.0 °F -6.5 °F 6.1 °F 77% 30.55 in 2.0 mi WNW 20.7 mph - 0.00 in Snow Light Snow
9:54 AM 12.9 °F -5.3 °F 7.0 °F 77% 30.66 in 1.8 mi WNW 20.7 mph - 0.00 in Snow Light Snow
9:57 AM 12.9 °F -4.9 °F 7.0 °F 77% 30.55 in 2.5 mi WNW 19.6 mph 26.5 mph 0.00 in Snow Light Snow
10:05 AM 14.0 °F -3.4 °F 8.6 °F 79% 30.55 in 7.0 mi WNW 19.6 mph - N/A Snow Light Snow
10:20 AM 14.0 °F -3.4 °F 8.1 °F 77% 30.55 in 4.0 mi WNW 19.6 mph - 0.00 in Snow Light Snow
10:54 AM 16.0 °F -0.9 °F 9.0 °F 74% 30.67 in 9.0 mi WNW 19.6 mph 26.5 mph 0.00 in Snow Light Snow
11:34 AM 18.0 °F 2.2 °F 10.0 °F 71% 30.55 in 2.5 mi WNW 18.4 mph - 0.00 in Snow Light Snow
11:47 AM 19.0 °F 3.6 °F 10.9 °F 71% 30.55 in 3.0 mi NW 18.4 mph - 0.00 in Snow Light Snow
11:54 AM 19.0 °F 2.7 °F 10.9 °F 71% 30.66 in 4.0 mi NW 20.7 mph - 0.00 in Snow Light Snow
12:54 PM 21.0 °F 5.0 °F 12.0 °F 68% 30.65 in 9.0 mi WNW 21.9 mph - 0.00 in Snow Light Snow
1:54 PM 21.0 °F 5.0 °F 12.0 °F 68% 30.65 in 10.0 mi WNW 21.9 mph 27.6 mph 0.00 in   Overcast
2:54 PM 19.0 °F 3.2 °F 10.9 °F 71% 30.66 in 9.0 mi WNW 19.6 mph 28.8 mph 0.00 in   Overcast
3:54 PM 17.1 °F 0.6 °F 10.0 °F 74% 30.67 in 10.0 mi WNW 19.6 mph - 0.00 in   Mostly Cloudy
4:25 PM 17.1 °F 1.0 °F 8.1 °F 68% 30.56 in 10.0 mi WNW 18.4 mph 26.5 mph N/A   Scattered Clouds
4:54 PM 15.1 °F -2.0 °F 7.0 °F 70% 30.68 in 10.0 mi WNW 19.6 mph 25.3 mph N/A   Clear
5:54 PM 12.9 °F -3.9 °F 5.0 °F 71% 30.70 in 10.0 mi WNW 17.3 mph - N/A   Clear
6:54 PM 10.9 °F -5.4 °F 3.9 °F 73% 30.71 in 10.0 mi WNW 15.0 mph - N/A   Scattered Clouds
7:54 PM 10.0 °F -5.2 °F 3.9 °F 76% 30.71 in 10.0 mi WNW 12.7 mph - N/A   Clear
8:54 PM 9.0 °F -7.9 °F 3.0 °F 77% 30.71 in 10.0 mi WNW 15.0 mph - N/A   Clear
9:54 PM 9.0 °F -8.5 °F 1.9 °F 73% 30.71 in 10.0 mi West 16.1 mph - N/A   Clear
10:54 PM 8.1 °F -8.4 °F 1.0 °F 73% 30.71 in 10.0 mi West 13.8 mph - N/A   Clear
11:54 PM 8.1 °F -9.6 °F 1.0 °F 73% 30.70 in 10.0 mi West 16.1 mph - N/A   Clear